CW3007 Weather Reports


Display with metric or nautical units.
time (UTC)temp
F
wind
direction
speed
MPH
gust
MPH
rain 1hr
in
rain 24hr
in
rain mn
in
humidity
%
barometer
mb
20260502201622 74 34 4.0 15.0 0.00 0.00 0.01 42 1020.4
20260502200622 74 41 5.0 13.0 0.00 0.00 0.01 43 1020.5
20260502195622 74 53 10.0 15.0 0.00 0.00 0.01 43 1020.4
20260502193622 73 355 5.0 11.0 0.00 0.00 0.01 48 1020.6
20260502192622 73 9 7.0 15.0 0.00 0.00 0.01 45 1020.6
20260502191622 73 69 4.0 14.0 0.00 0.00 0.01 48 1020.6
20260502185622 73 36 10.0 10.0 0.00 0.00 0.01 49 1020.7
20260502184622 72 25 5.0 9.0 0.00 0.00 0.01 51 1020.8
20260502182622 72 321 4.0 14.0 0.00 0.00 0.01 51 1021.1
20260502181622 72 360 4.0 13.0 0.00 0.00 0.01 49 1021.3
20260502180622 72 345 6.0 10.0 0.00 0.00 0.01 52 1021.6
20260502163622 68 343 10.0 13.0 0.00 0.00 0.01 58 1022.6
20260502162622 68 312 4.0 12.0 0.00 0.00 0.01 56 1022.6
20260502161622 67 22 9.0 10.0 0.00 0.00 0.01 57 1022.6
20260502151622 64 312 3.0 11.0 0.00 0.00 0.01 63 1022.6
20260502150621 63 315 4.0 11.0 0.00 0.00 0.01 68 1022.5
20260502123622 51 318 3.0 3.0 0.00 0.00 0.01 88 1021.0
20260502120622 49 234 0.0 0.0 0.00 0.00 0.01 88 1020.4
20260502115621 49 234 0.0 0.0 0.00 0.00 0.01 87 1020.2
20260502112621 49 234 0.0 1.0 0.00 0.00 0.01 87 1019.9
20260502111621 49 234 1.0 2.0 0.00 0.00 0.01 87 1019.7
20260502105621 49 274 0.0 0.0 0.00 0.00 0.01 87 1019.4
20260502104621 49 298 0.0 0.0 0.00 0.00 0.01 87 1019.1
20260502103621 50 298 0.0 1.0 0.00 0.00 0.01 87 1018.9
20260502090621 49 11 0.0 0.0 0.00 0.00 0.00 86 1018.2
20260502070621 52 309 1.0 4.0 0.00 0.00 0.00 85 1017.9
20260502064621 52 318 0.0 2.0 0.00 0.00 0.00 85 1017.9
20260502063621 52 312 1.0 2.0 0.00 0.00 0.00 84 1017.8
20260502062621 53 309 0.0 0.0 0.00 0.00 0.00 84 1017.9
20260502061621 53 347 0.0 2.0 0.00 0.00 0.00 84 1017.9
20260502060621 53 347 1.0 3.0 0.00 0.00 0.00 84 1018.0
20260502055621 53 330 3.0 4.0 0.00 0.00 0.00 84 1018.0
20260502054621 54 348 1.0 4.0 0.00 0.00 0.00 84 1018.1
20260502053621 54 13 1.0 4.0 0.00 0.00 0.00 84 1018.0
20260502052621 54 9 3.0 5.0 0.00 0.00 0.00 83 1017.9
20260502050621 54 337 2.0 4.0 0.00 0.00 0.00 83 1017.7
20260502045621 55 338 3.0 5.0 0.00 0.00 0.93 83 1017.7
20260502044621 55 329 3.0 4.0 0.00 0.00 0.93 83 1017.6
20260502041621 55 322 2.0 5.0 0.00 0.00 0.93 84 1017.6
20260502040621 55 26 2.0 3.0 0.00 0.00 0.93 84 1017.7
20260502035621 56 333 1.0 5.0 0.00 0.00 0.93 84 1017.7
20260502034621 56 360 2.0 6.0 0.00 0.00 0.93 84 1017.5
20260502032621 56 335 3.0 5.0 0.00 0.00 0.93 84 1017.6
20260502030621 56 347 5.0 8.0 0.00 0.00 0.93 83 1017.5
20260502025621 56 9 4.0 9.0 0.00 0.00 0.93 83 1017.3
20260502024621 56 9 4.0 8.0 0.00 0.00 0.93 83 1017.2
20260502023621 56 346 4.0 8.0 0.00 0.00 0.93 83 1017.0
20260502022621 56 33 4.0 13.0 0.00 0.00 0.93 83 1016.7
20260502021621 56 48 4.0 11.0 0.00 0.00 0.93 83 1016.5
20260502020621 56 25 6.0 9.0 0.00 0.00 0.93 84 1016.3
20260502015621 56 26 4.0 9.0 0.00 0.00 0.93 83 1016.2
20260502014621 56 24 8.0 9.0 0.00 0.00 0.93 83 1016.1
20260502013621 56 34 4.0 10.0 0.00 0.00 0.93 83 1015.8
20260502012621 56 26 5.0 12.0 0.00 0.00 0.93 83 1015.7
20260502011621 56 360 3.0 13.0 0.00 0.00 0.93 83 1015.6
20260502010621 56 30 9.0 18.0 0.00 0.00 0.93 83 1015.4
20260502005621 56 22 6.0 14.0 0.00 0.00 0.93 84 1015.2
20260502004621 56 27 10.0 18.0 0.00 0.00 0.93 84 1015.0
20260502003621 55 15 11.0 16.0 0.00 0.00 0.93 84 1014.8
20260502002621 55 348 12.0 18.0 0.00 0.00 0.93 85 1014.6
20260502001621 55 9 5.0 15.0 0.00 0.00 0.93 86 1014.3
20260501235621 55 348 12.0 14.0 0.00 0.00 0.93 87 1014.9
20260501234622 55 360 9.0 18.0 0.00 0.00 0.93 87 1014.6
20260501233622 55 9 10.0 17.0 0.00 0.00 0.93 87 1014.0
20260501232623 55 37 11.0 15.0 0.00 0.00 0.93 88 1013.8
20260501231623 56 350 5.0 16.0 0.00 0.00 0.93 88 1014.2
20260501230622 56 17 14.0 14.0 0.00 0.00 0.93 88 1013.8
20260501225622 56 31 6.0 17.0 0.00 0.00 0.93 88 1013.8
20260501224622 56 30 15.0 22.0 0.00 0.00 0.93 88 1013.4
20260501223622 56 21 13.0 17.0 0.00 0.00 0.93 88 1013.9
20260501222622 56 351 8.0 16.0 0.00 0.00 0.92 88 1013.7
20260501221621 57 329 8.0 14.0 0.00 0.00 0.90 88 1013.6
20260501214622 57 355 8.0 16.0 0.00 0.00 0.84 87 1013.5
20260501213623 57 11 5.0 15.0 0.00 0.00 0.83 87 1013.2
20260501212622 58 5 8.0 17.0 0.00 0.00 0.83 87 1012.7
20260501211622 58 17 11.0 14.0 0.00 0.00 0.83 88 1012.3
20260501210622 58 348 5.0 14.0 0.00 0.00 0.83 88 1012.0
20260501205622 58 19 11.0 15.0 0.00 0.00 0.83 88 1011.8
20260501204623 58 43 7.0 18.0 0.00 0.00 0.83 89 1011.5
20260501203622 58 47 6.0 17.0 0.00 0.00 0.83 89 1011.4
20260501202622 58 34 12.0 17.0 0.00 0.00 0.83 89 1011.1